When you browse on this site, cookies collect data to enhance your experience and personalize the content and advertising you see.
Visit our Privacy Policy to learn more. By continuing to use the site, you agree to this use of cookies and data.
  • In Austria
  • List of Countries
  • For 7 days
  • Water Temperature
  • Weather Map
  • News
  • Weather Widgets
  • user-avatar
    Login

    Hourly Weather Altach

    Today, 19 February, Wednesday

    Time Temperature Precipitation Wind Pressure Humidity
    00:00 +4°C° 0 mm 1 mps 729 mmHg 86%
    01:00 +3°C° 0 mm 2 mps 728 mmHg 86%
    02:00 +3°C° 0 mm 2 mps 728 mmHg 83%
    03:00 +3°C° 0 mm 2 mps 728 mmHg 81%
    04:00 +3°C° 0 mm 2 mps 727 mmHg 79%
    05:00 +3°C° 0 mm 2 mps 727 mmHg 78%
    06:00 +3°C° 0 mm 2 mps 726 mmHg 77%
    07:00 +3°C° 0 mm 2 mps 726 mmHg 76%
    08:00 +3°C° 0.2 mm 2 mps 726 mmHg 78%
    09:00 +3°C° 0.2 mm 3 mps 726 mmHg 81%
    10:00 +3°C° 0.2 mm 3 mps 726 mmHg 83%
    11:00 +3°C° 0.7 mm 3 mps 726 mmHg 86%
    12:00 +3°C° 0.7 mm 4 mps 725 mmHg 88%
    13:00 +2°C° 0.7 mm 5 mps 725 mmHg 90%
    14:00 +2°C° 0.8 mm 5 mps 726 mmHg 88%
    15:00 +2°C° 0.8 mm 5 mps 726 mmHg 86%
    16:00 +2°C° 0.8 mm 5 mps 726 mmHg 84%
    17:00 +3°C° 0.5 mm 4 mps 727 mmHg 86%
    18:00 +2°C° 0.5 mm 3 mps 728 mmHg 89%
    19:00 +3°C° 0.5 mm 2 mps 728 mmHg 91%
    20:00 +2°C° 0.4 mm 2 mps 728 mmHg 93%
    21:00 +3°C° 0.4 mm 1 mps 729 mmHg 94%
    22:00 +3°C° 0.4 mm 1 mps 729 mmHg 95%
    23:00 +3°C° 0.1 mm 1 mps 729 mmHg 93%

    Tomorrow, 20 February, Thursday

    Time Temperature Precipitation Wind Pressure Humidity
    00:00 +2°C° 0.1 mm 2 mps 729 mmHg 91%
    01:00 +2°C° 0.1 mm 2 mps 729 mmHg 88%
    02:00 +1°C° 0 mm 2 mps 728 mmHg 86%
    03:00 +1°C° 0 mm 2 mps 728 mmHg 84%
    04:00 +1°C° 0 mm 2 mps 727 mmHg 82%
    05:00 +1°C° 0 mm 2 mps 727 mmHg 80%
    06:00 +1°C° 0 mm 2 mps 727 mmHg 77%
    07:00 +1°C° 0 mm 2 mps 726 mmHg 75%
    08:00 +3°C° 0 mm 2 mps 726 mmHg 73%
    09:00 +5°C° 0 mm 1 mps 726 mmHg 71%
    10:00 +7°C° 0 mm 1 mps 726 mmHg 69%
    11:00 +8°C° 0 mm 1 mps 726 mmHg 68%
    12:00 +9°C° 0 mm 1 mps 725 mmHg 67%
    13:00 +10°C° 0 mm 1 mps 725 mmHg 67%
    14:00 +10°C° 0 mm 1 mps 725 mmHg 69%
    15:00 +10°C° 0 mm 1 mps 724 mmHg 71%
    16:00 +11°C° 0 mm 1 mps 724 mmHg 74%
    17:00 +9°C° 0 mm 1 mps 724 mmHg 75%
    18:00 +8°C° 0 mm 1 mps 724 mmHg 76%
    19:00 +5°C° 0 mm 2 mps 724 mmHg 77%
    20:00 +5°C° 0 mm 2 mps 724 mmHg 76%
    21:00 +5°C° 0 mm 2 mps 725 mmHg 75%
    22:00 +5°C° 0 mm 2 mps 725 mmHg 75%
    23:00 +5°C° 0 mm 2 mps 725 mmHg 77%

    Day after tomorrow, 21 February, Friday

    Time Temperature Precipitation Wind Pressure Humidity
    00:00 +4°C° 0 mm 2 mps 725 mmHg 79%
    01:00 +4°C° 0 mm 2 mps 726 mmHg 81%
    02:00 +3°C° 0.2 mm 3 mps 726 mmHg 83%
    03:00 +3°C° 0.2 mm 3 mps 727 mmHg 85%
    04:00 +3°C° 0.2 mm 3 mps 727 mmHg 87%
    05:00 +4°C° 1.2 mm 2 mps 728 mmHg 90%
    06:00 +4°C° 1.2 mm 2 mps 729 mmHg 93%
    07:00 +4°C° 1.2 mm 2 mps 729 mmHg 95%
    14:00 +6°C° 0 mm 1 mps 731 mmHg 82%
    15:00 +6°C° 0 mm 1 mps 731 mmHg 80%
    16:00 +6°C° 0 mm 0 mps 731 mmHg 79%
    17:00 +4°C° 0 mm 0 mps 731 mmHg 81%
    18:00 +3°C° 0 mm 0 mps 732 mmHg 84%
    19:00 +2°C° 0 mm 0 mps 732 mmHg 86%
    20:00 +3°C° 0 mm 1 mps 732 mmHg 85%
    21:00 +3°C° 0 mm 1 mps 732 mmHg 83%
    22:00 +2°C° 0 mm 1 mps 732 mmHg 82%
    23:00 +2°C° 0 mm 1 mps 732 mmHg 80%

    22 February, Saturday

    Time Temperature Precipitation Wind Pressure Humidity
    00:00 +2°C° 0 mm 1 mps 732 mmHg 77%
    01:00 +2°C° 0 mm 1 mps 732 mmHg 75%
    02:00 +2°C° 0 mm 1 mps 732 mmHg 73%
    03:00 +2°C° 0 mm 1 mps 732 mmHg 71%
    04:00 +2°C° 0 mm 1 mps 732 mmHg 69%
    05:00 +3°C° 0 mm 1 mps 732 mmHg 67%
    06:00 +3°C° 0 mm 1 mps 732 mmHg 65%
    07:00 +3°C° 0 mm 1 mps 732 mmHg 63%
    08:00 +5°C° 0 mm 1 mps 732 mmHg 63%
    09:00 +6°C° 0 mm 1 mps 732 mmHg 63%
    10:00 +8°C° 0 mm 1 mps 732 mmHg 63%
    11:00 +9°C° 0 mm 1 mps 732 mmHg 63%
    12:00 +10°C° 0 mm 1 mps 732 mmHg 64%
    13:00 +12°C° 0 mm 1 mps 732 mmHg 64%
    14:00 +12°C° 0 mm 1 mps 731 mmHg 67%
    15:00 +11°C° 0 mm 1 mps 731 mmHg 69%
    16:00 +11°C° 0 mm 1 mps 731 mmHg 72%
    17:00 +10°C° 0 mm 1 mps 731 mmHg 70%
    18:00 +9°C° 0 mm 1 mps 731 mmHg 69%
    19:00 +7°C° 0 mm 1 mps 732 mmHg 67%
    20:00 +6°C° 0 mm 2 mps 732 mmHg 65%
    21:00 +6°C° 0 mm 2 mps 732 mmHg 63%
    22:00 +5°C° 0 mm 2 mps 732 mmHg 61%
    23:00 +5°C° 0 mm 2 mps 732 mmHg 60%

    23 February, Sunday

    Time Temperature Precipitation Wind Pressure Humidity
    00:00 +5°C° 0 mm 2 mps 732 mmHg 58%
    01:00 +5°C° 0 mm 2 mps 732 mmHg 57%
    02:00 +5°C° 0 mm 2 mps 732 mmHg 56%
    03:00 +5°C° 0 mm 2 mps 732 mmHg 56%
    04:00 +5°C° 0 mm 2 mps 732 mmHg 55%
    05:00 +5°C° 0 mm 2 mps 732 mmHg 54%
    06:00 +5°C° 0 mm 2 mps 732 mmHg 54%
    07:00 +5°C° 0 mm 2 mps 731 mmHg 54%
    08:00 +7°C° 0 mm 2 mps 731 mmHg 56%
    09:00 +9°C° 0 mm 1 mps 731 mmHg 57%
    10:00 +11°C° 0 mm 1 mps 731 mmHg 59%
    11:00 +12°C° 0 mm 1 mps 731 mmHg 59%
    12:00 +13°C° 0 mm 1 mps 731 mmHg 59%
    13:00 +15°C° 0 mm 2 mps 730 mmHg 58%
    14:00 +14°C° 0 mm 2 mps 730 mmHg 61%
    15:00 +14°C° 0 mm 2 mps 729 mmHg 63%
    16:00 +14°C° 0 mm 2 mps 729 mmHg 65%
    17:00 +12°C° 0 mm 2 mps 729 mmHg 64%
    18:00 +10°C° 0 mm 2 mps 729 mmHg 63%
    19:00 +8°C° 0 mm 2 mps 729 mmHg 62%
    20:00 +8°C° 0 mm 2 mps 729 mmHg 62%
    21:00 +8°C° 0 mm 3 mps 730 mmHg 61%
    22:00 +8°C° 0 mm 3 mps 730 mmHg 60%
    23:00 +7°C° 0 mm 3 mps 730 mmHg 61%

    24 February, Monday

    Time Temperature Precipitation Wind Pressure Humidity
    00:00 +7°C° 0 mm 2 mps 730 mmHg 61%
    01:00 +7°C° 0 mm 2 mps 730 mmHg 62%
    02:00 +7°C° 0 mm 2 mps 730 mmHg 63%
    03:00 +7°C° 0 mm 2 mps 730 mmHg 63%
    04:00 +7°C° 0 mm 2 mps 730 mmHg 64%
    05:00 +7°C° 0.2 mm 2 mps 730 mmHg 68%
    06:00 +7°C° 0.2 mm 2 mps 730 mmHg 72%
    07:00 +7°C° 0.2 mm 2 mps 730 mmHg 76%
    08:00 +7°C° 0.4 mm 2 mps 731 mmHg 79%
    09:00 +7°C° 0.4 mm 2 mps 731 mmHg 82%
    10:00 +8°C° 0.4 mm 2 mps 731 mmHg 85%
    11:00 +8°C° 0.1 mm 2 mps 730 mmHg 84%
    12:00 +10°C° 0.1 mm 1 mps 730 mmHg 84%
    13:00 +11°C° 0.1 mm 1 mps 730 mmHg 83%
    14:00 +11°C° 0 mm 1 mps 730 mmHg 83%
    15:00 +12°C° 0 mm 1 mps 729 mmHg 82%
    16:00 +13°C° 0 mm 1 mps 729 mmHg 82%
    17:00 +11°C° 0 mm 1 mps 729 mmHg 84%
    18:00 +10°C° 0 mm 1 mps 728 mmHg 87%
    19:00 +9°C° 0 mm 1 mps 728 mmHg 89%
    20:00 +9°C° 0 mm 1 mps 728 mmHg 87%
    21:00 +8°C° 0 mm 1 mps 728 mmHg 86%
    22:00 +8°C° 0 mm 1 mps 728 mmHg 84%
    23:00 +8°C° 0 mm 1 mps 727 mmHg 82%
    Show more